FW2265 Weather Reports


Display with metric or nautical units.
time (UTC)temp
F
wind
direction
speed
MPH
gust
MPH
rain 1hr
in
rain 24hr
in
rain mn
in
humidity
%
barometer
mb
20260831200534 92 41 2.0 6.0 0.00 0.09 0.09 65 1016.0
20260831195631 93 64 0.0 3.0 0.00 0.09 0.09 63 1016.2
20260831194633 91 167 0.0 0.0 0.00 0.09 0.09 67 1016.3
20260831193731 90 117 0.0 0.0 0.00 0.09 0.09 70 1016.2
20260831192731 89 81 0.0 0.0 0.00 0.09 0.09 73 1016.4
20260831191735 87 180 0.0 0.0 0.00 0.09 0.09 74 1016.5
20260831190734 86 218 0.0 2.0 0.00 0.09 0.09 75 1016.7
20260831185732 87 220 0.0 0.0 0.00 0.09 0.09 75 1016.9
20260831184733 88 202 0.0 0.0 0.00 0.09 0.09 73 1016.9
20260831183732 89 261 0.0 0.0 0.00 0.09 0.09 75 1016.9
20260831181732 88 225 0.0 0.0 0.00 0.09 0.09 78 1016.9
20260831180831 87 225 0.0 0.0 0.07 0.09 0.09 80 1017.2
20260831175832 87 225 0.0 0.0 0.09 0.09 0.09 82 1017.4
20260831174832 84 225 0.0 0.0 0.09 0.09 0.09 87 1017.4
20260831173834 82 202 0.0 0.0 0.09 0.09 0.09 91 1017.3
20260831172931 81 202 0.0 0.0 0.09 0.09 0.09 87 1017.4
20260831171930 84 202 0.0 1.0 0.09 0.09 0.09 81 1017.6
20260831170931 88 207 0.0 2.0 0.03 0.03 0.02 73 1017.6
20260831165935 88 274 0.0 0.0 0.00 0.00 0.00 72 1017.5
20260831164933 88 202 0.0 1.0 0.00 0.00 0.00 71 1017.5
20260831163930 88 45 0.0 0.0 0.00 0.00 0.00 71 1017.8
20260831162931 88 225 0.0 0.0 0.00 0.00 0.00 72 1017.5
20260831162832 88 225 0.0 0.0 0.00 0.00 0.00 71 1017.8
20260831161831 88 45 0.0 0.0 0.00 0.00 0.00 70 1017.8
20260831160832 89 53 0.0 1.0 0.00 0.00 0.00 71 1017.8
20260831155930 89 45 0.0 1.0 0.00 0.00 0.00 73 1017.7
20260831154933 88 230 0.0 0.0 0.00 0.00 0.00 73 1017.6
20260831152932 88 247 0.0 0.0 0.00 0.00 0.00 75 1017.5
20260831152030 88 296 0.0 1.0 0.00 0.00 0.00 76 1017.7
20260831151034 86 80 0.0 0.0 0.00 0.00 0.00 79 1017.6
20260831150131 84 157 0.0 0.0 0.00 0.00 0.00 81 1017.7
20260831145131 83 152 0.0 0.0 0.00 0.00 0.00 83 1017.6
20260831142133 81 202 0.0 0.0 0.00 0.00 0.00 89 1017.4
20260831141133 80 202 0.0 0.0 0.00 0.00 0.00 92 1017.4
20260831140230 79 202 0.0 0.0 0.00 0.00 0.00 92 1017.4
20260831135232 79 202 0.0 0.0 0.00 0.00 0.00 93 1017.4
20260831134231 79 202 0.0 0.0 0.00 0.00 0.00 95 1017.3
20260831133232 78 202 0.0 0.0 0.00 0.00 0.00 95 1017.1
20260831131230 77 202 0.0 0.0 0.00 0.00 0.00 95 1016.8
20260831131132 77 202 0.0 0.0 0.00 0.00 0.00 95 1016.9
20260831130131 77 202 0.0 0.0 0.00 0.00 0.00 95 1016.8
20260831125133 77 202 0.0 0.0 0.00 0.00 0.00 94 1016.6
20260831124131 77 202 0.0 0.0 0.00 0.00 0.00 94 1016.5
20260831123230 77 202 0.0 0.0 0.00 0.00 0.00 95 1016.4
20260831122234 77 202 0.0 0.0 0.00 0.00 0.00 95 1016.2
20260831121231 77 202 0.0 0.0 0.00 0.00 0.00 95 1016.1
20260831121132 77 202 0.0 0.0 0.00 0.00 0.00 94 1016.2
20260831120230 77 202 0.0 0.0 0.00 0.00 0.00 94 1016.1
20260831115231 77 202 0.0 0.0 0.00 0.00 0.00 94 1016.1
20260831114233 77 202 0.0 0.0 0.00 0.00 0.00 94 1016.0
20260831113330 77 202 0.0 0.0 0.00 0.00 0.00 94 1015.8
20260831111334 77 202 0.0 0.0 0.00 0.00 0.00 94 1015.7
20260831110432 77 202 0.0 0.0 0.00 0.00 0.00 94 1015.8
20260831105432 77 202 0.0 0.0 0.00 0.00 0.00 94 1015.7
20260831104433 77 202 0.0 0.0 0.00 0.00 0.00 93 1015.7
20260831103434 77 202 0.0 0.0 0.00 0.00 0.00 93 1016.0
20260831102431 77 202 0.0 0.0 0.00 0.00 0.00 92 1015.8
20260831101432 77 202 0.0 0.0 0.00 0.00 0.00 93 1015.9
20260831100530 78 202 0.0 0.0 0.00 0.00 0.00 92 1015.9
20260831095532 78 202 0.0 0.0 0.00 0.00 0.00 92 1015.9
20260831094533 78 202 0.0 0.0 0.00 0.00 0.00 92 1016.0
20260831093630 78 202 0.0 0.0 0.00 0.00 0.00 90 1015.8
20260831092632 78 202 0.0 0.0 0.00 0.00 0.00 91 1015.6
20260831091632 78 202 0.0 0.0 0.00 0.00 0.00 90 1015.7
20260831090632 78 202 0.0 0.0 0.00 0.00 0.00 90 1015.7
20260831085730 78 202 0.0 0.0 0.00 0.00 0.00 90 1015.5
20260831084734 79 202 0.0 0.0 0.00 0.00 0.00 90 1015.7
20260831082831 79 202 0.0 0.0 0.00 0.00 0.00 89 1015.8
20260831081930 79 202 0.0 0.0 0.00 0.00 0.00 89 1015.9
20260831080932 79 202 0.0 0.0 0.00 0.00 0.00 87 1015.9
20260831075932 79 202 0.0 0.0 0.00 0.00 0.00 86 1016.1
20260831074031 80 202 0.0 0.0 0.00 0.00 0.00 86 1015.9
20260831071032 80 202 0.0 1.0 0.00 0.00 0.00 85 1016.1
20260831070032 81 202 0.0 0.0 0.00 0.00 0.00 84 1016.2
20260831065047 81 202 0.0 0.0 0.00 0.00 0.00 84 1016.2
20260831064030 81 202 0.0 0.0 0.00 0.00 0.00 84 1016.2
20260831063130 81 202 0.0 0.0 0.00 0.00 0.00 84 1016.2
20260831062135 81 202 0.0 1.0 0.00 0.00 0.00 84 1016.4
20260831061131 81 202 0.0 0.0 0.00 0.00 0.00 83 1016.3
20260831060132 81 202 0.0 0.0 0.00 0.00 0.00 82 1016.4
20260831055232 82 202 0.0 0.0 0.00 0.00 0.00 82 1016.3
20260831054330 82 202 0.0 0.0 0.00 0.00 0.00 81 1016.2
20260831053332 82 202 0.0 0.0 0.00 0.00 0.00 81 1016.3
20260831052333 82 202 0.0 0.0 0.00 0.00 0.00 79 1016.1
20260831051332 83 225 0.0 0.0 0.00 0.00 0.00 79 1016.2
20260831050332 83 225 0.0 1.0 0.00 0.00 0.00 80 1016.1
20260831045333 83 225 0.0 2.0 0.00 0.00 0.00 79 1016.2
20260831044334 83 202 0.0 0.0 0.00 0.00 0.00 78 1016.2
20260831043334 83 202 0.0 0.0 0.00 0.00 0.00 77 1016.1
20260831042333 83 202 0.0 0.0 0.00 0.00 0.00 76 1016.1
20260831041332 83 225 0.0 0.0 0.00 0.00 0.00 77 1016.1
20260831035334 83 225 0.0 0.0 0.00 0.00 0.00 75 1016.0
20260831034432 83 225 0.0 1.0 0.00 0.00 0.00 76 1015.9
20260831031435 84 225 0.0 0.0 0.00 0.00 0.00 74 1015.7
20260831030532 84 225 0.0 0.0 0.00 0.00 0.00 74 1015.7
20260831022536 85 225 0.0 2.0 0.00 0.00 0.00 71 1015.1
20260831021536 85 225 0.0 0.0 0.00 0.00 0.00 71 1014.9
20260831020535 85 225 0.0 0.0 0.00 0.00 0.00 70 1014.9
20260831015632 86 225 0.0 1.0 0.00 0.00 0.00 70 1014.8
20260831014635 86 225 1.0 2.0 0.00 0.00 0.00 69 1014.8
20260831013635 86 223 2.0 4.0 0.00 0.00 0.00 69 1014.8
20260831012635 86 225 0.0 2.0 0.00 0.00 0.00 67 1014.7
20260831011634 87 225 1.0 3.0 0.00 0.00 0.00 65 1014.7
20260831010634 87 207 0.0 0.0 0.00 0.00 0.00 64 1014.5
20260831005632 88 225 0.0 1.0 0.00 0.00 0.00 63 1014.6
20260831003732 88 202 1.0 2.0 0.00 0.00 0.00 61 1014.4
20260831002733 89 213 0.0 0.0 0.00 0.00 0.00 59 1014.3
20260831001832 90 219 0.0 0.0 0.00 0.00 0.00 57 1014.4
20260830234032 92 222 2.0 5.0 0.00 0.00 0.00 53 1014.4
20260830232035 93 144 0.0 0.0 0.00 0.00 0.00 50 1014.5
20260830231035 95 225 0.0 0.0 0.00 0.00 0.00 50 1014.6
20260830224035 94 194 0.0 3.0 0.00 0.00 0.00 53 1014.6
20260830223036 94 192 0.0 0.0 0.00 0.00 0.00 53 1014.3
20260830222033 95 192 0.0 1.0 0.00 0.00 0.00 53 1014.3
20260830221032 94 108 1.0 7.0 0.00 0.00 0.00 55 1014.3
20260830220037 94 3 2.0 3.0 0.00 0.00 0.00 56 1014.3
20260830215034 94 105 0.0 4.0 0.00 0.00 0.00 56 1014.3
20260830214033 94 119 0.0 1.0 0.00 0.00 0.00 55 1014.4
20260830213035 94 149 1.0 5.0 0.00 0.00 0.00 56 1014.4
20260830212033 95 55 1.0 6.0 0.00 0.00 0.00 56 1014.6
20260830211034 96 166 0.0 1.0 0.00 0.00 0.00 54 1014.8
20260830210035 96 20 1.0 5.0 0.00 0.00 0.00 53 1014.9
20260830205033 97 61 0.0 5.0 0.00 0.00 0.00 51 1015.1
20260830204034 97 161 0.0 6.0 0.00 0.00 0.00 52 1015.0
20260830203035 96 195 2.0 4.0 0.00 0.00 0.00 52 1015.2
20260830202032 97 66 1.0 7.0 0.00 0.00 0.00 51 1015.3
20260830201034 97 198 0.0 2.0 0.00 0.00 0.00 52 1015.3